THOR ABLESTAR DEB, 48820

Orbit data source: Space-Track

THOR ABLESTAR DEB, 48820 is space debris in LEO originally from a launch on Thu, 29 Jun 1961 UTC launched from the Air Force Eastern Test Range (AFETR). Debris objects in space refer to the collection of defunct objects orbiting the Earth. Examples of debris include non-operational satellites, rocket bodies, and fragments generated from explosions, collisions, or faulty payload assembly.

Loading next visibility...
Identifier
48820, 1961-015MY
Orbit
LEO
Country
Flag of USUS
Related business
Manufacturer
Unknown
Mission
Spacecraft
Bus & Motor
Unknown
Mass
Unknown
Launch date (UTC)
1961-06-29 (65 years ago)
Launch vehicle
Unknown
Launch site
Air Force Eastern Test Range (AFETR)
Object type
Payload
Rocket body
Debris
Shape & HBR
Unknown shape, 0.057 m
Radar Cross Section
Small (<0.1 m²)

Expand to show TLE details & history
Last TLE update: 2 days ago

TLE from 2 days ago
0 THOR ABLESTAR DEB
1 48820U 61015MY  26264.83113034  .00000286  00000-0  39598-3 0  9991
2 48820  65.8485  65.7498 0126164 115.4468 245.9710 13.69554513641795
Epoch: 2026-09-21T19:56Z
TLE epoch observation values (Epoch: 2026-09-21T19:56:49.661Z)
Latitude
0.00005°
Longitude
125.83758°
Altitude
1,042.04 km
Speed
7.312 km/s
True Right ascension
04h 22m 59s
True Declination
0° 00' 00"
Sunlit
Object was in daylight at epoch
Visualization orbit readout
Latitude
Unknown
Longitude
Unknown
Altitude
Unknown
Speed
Unknown
Apparent Right ascension
Unknown
Apparent Declination
Unknown
Sunlit
N/A
Visualization observer readout
Local Sidereal Time
19:13:02
Azimuth
Unknown
Elevation
Unknown
Doppler factor
Unknown
Orbital elements
Apogee altitude
1,092.771 km
Perigee altitude
906.608 km
Semi-major axis
7,377.827 km
Eccentricity
0.01262
Inclination
65.8485°
RAAN
65.7498°
Arg. of periapsis
115.4468°
True anomaly
244.6591°
Mean anomaly
245.971°
Eccentric anomaly
245.3142°
Mean motion
3.42492 °/min
Orbital period
105.11 mins
BSTAR
0.00039598

Documentation

Showing up to 5 results
|